Overview Statistics Trail Chart Weather Telemetry Raw packets
 

This is the latest recevied weather packets stored in our database for station/object K7DC. If no packets are shown the sender has not sent any weather packets the latest 10 day(s).

<< 46 47 48 49 50 51 52 >>
Time Temp. Humidity Pressure Rain* Wind** Luminosity Snow
1788322303 28.33° C 55% 1016.9 hPa 0 mm - 0 W/m² -
1788322002 28.33° C 55% 1016.7 hPa 0 mm - 0 W/m² -
1788321697 28.33° C 54% 1017.1 hPa 0 mm - 0 W/m² -
1788321395 28.33° C 53% 1016.8 hPa 0 mm - 0 W/m² -
1788321091 28.33° C 55% 1016.6 hPa 0 mm - 0 W/m² -
1788320811 28.33° C 56% 1016.6 hPa 0 mm - 0 W/m² -
1788320485 27.78° C 57% 1016.5 hPa 0 mm - 0 W/m² -
1788320184 27.78° C 57% 1016.4 hPa 0 mm - 0 W/m² -
1788319879 27.78° C 56% 1016.6 hPa 0 mm - 0 W/m² -
1788319578 28.33° C 55% 1016.3 hPa 0 mm - 0 W/m² -
1788319272 28.89° C 53% 1016.3 hPa 0 mm - 0 W/m² -
1788318973 28.89° C 52% 1016.1 hPa 0 mm - 0 W/m² -
1788318669 28.89° C 52% 1015.9 hPa 0 mm - 0 W/m² -
1788318364 28.89° C 52% 1015.8 hPa 0 mm - 0 W/m² -
1788318063 28.89° C 51% 1015.8 hPa 0 mm - 0 W/m² -
1788317763 28.89° C 52% 1015.8 hPa 0 mm - 0 W/m² -
1788317459 28.89° C 51% 1015.5 hPa 0 mm - 0 W/m² -
1788317154 29.44° C 50% 1015.3 hPa 0 mm - 0 W/m² -
1788316854 29.44° C 49% 1015.6 hPa 0 mm - 0 W/m² -
1788316550 30° C 50% 1015.3 hPa 0 mm - 0 W/m² -
1788316244 30° C 49% 1015.4 hPa 0 mm - 0 W/m² -
1788315939 30° C 48% 1015.3 hPa 0 mm - 0 W/m² -
1788315635 30° C 47% 1015.3 hPa 0 mm - 0 W/m² -
1788315330 30° C 47% 1015 hPa 0 mm - 0 W/m² -
1788315030 30° C 47% 1015.1 hPa 0 mm - 0 W/m² -

* Rain latest hour (hover to see other rain measurements)
** Current wind speed in m/s (hover to see current wind gust speed)